Theta_e
301 301 302 302 303 304 304 305 304 304 305 305 305 307 309 309 308 308 307 306 303 299 296 292 290 290 289 289 289 289 289 289 289 289 288 288 288 288 288 287 287 286 286 285 285 285 285 285 285 285 285 284 284 284 284 284 283 283 282 282 281 281 281 282 283 283 283 282 281 280 280 280 280 280 279 278 278 278 278 278 278 278 278 277 277
300 301 302 303 303 303 304 304 303 302 303 303 303 304 307 306 306 305 304 303 300 295 292 291 290 289 289 288 289 289 289 289 288 288 288 288 288 287 287 287 286 286 285 285 285 284 285 285 285 285 284 284 284 284 284 284 283 282 282 282 281 281 281 281 281 282 282 282 281 280 280 280 279 279 278 278 278 277 277 277 277 277 277 276 276
299 300 301 302 302 302 302 303 302 301 301 301 301 301 304 304 303 303 301 300 296 291 289 290 289 289 289 288 288 288 288 288 288 288 288 288 287 287 287 287 286 285 285 285 285 284 285 285 285 284 284 284 284 284 284 283 283 282 282 281 281 281 281 280 280 281 281 281 281 280 279 279 278 278 278 277 277 277 276 276 276 276 277 276 276
299 300 300 301 300 299 299 300 300 299 299 300 300 301 302 302 301 300 298 296 293 289 288 289 289 289 288 288 288 288 288 288 288 288 288 287 287 287 287 286 286 285 285 285 285 285 285 285 285 285 284 284 284 284 283 283 283 282 282 281 281 280 280 280 279 279 280 280 280 279 279 278 278 278 277 277 277 277 276 276 276 276 276 276 276
299 299 299 299 298 297 297 297 297 298 299 300 300 301 301 301 300 298 296 294 291 289 288 289 289 289 288 288 288 288 288 288 288 287 287 287 287 287 287 286 285 285 285 285 285 285 285 285 285 285 285 284 284 284 283 283 282 282 282 281 281 280 280 279 279 279 279 279 280 279 278 278 277 277 277 276 277 277 277 277 277 276 276 276 276
299 299 298 297 296 296 296 295 296 298 300 300 300 301 301 300 299 297 295 292 290 289 288 289 289 289 288 288 288 288 288 288 288 287 287 287 287 286 286 286 285 285 284 284 284 285 285 285 285 285 285 284 284 284 283 283 282 282 281 281 281 280 279 279 278 278 278 279 279 279 278 278 277 277 277 277 277 277 277 277 277 277 276 276 275
298 298 298 297 296 295 295 295 296 297 299 301 301 301 300 299 298 297 294 291 289 288 288 288 289 288 289 288 288 288 288 288 288 287 287 287 286 286 286 285 285 285 284 284 284 284 284 285 285 284 284 284 284 284 283 283 282 282 281 281 280 280 279 278 278 278 278 278 279 278 278 277 277 277 277 277 277 277 277 277 277 277 276 276 275
297 297 297 297 296 296 295 296 297 297 299 301 301 300 298 297 297 296 293 290 288 288 288 288 288 288 288 288 288 288 288 288 288 287 287 287 286 286 286 285 285 284 284 284 283 284 285 285 284 284 284 284 284 284 283 282 282 282 281 281 280 279 279 278 278 278 278 278 278 278 278 277 277 278 278 278 278 278 278 277 277 276 276 276 275
296 296 297 296 296 296 297 298 298 297 297 298 298 297 296 296 295 294 291 289 288 288 288 288 288 288 288 288 287 288 288 288 288 288 287 287 286 286 285 285 284 284 284 284 284 285 285 285 284 284 284 285 284 283 283 282 282 281 281 281 280 280 279 278 278 278 278 278 278 278 278 278 278 278 278 278 278 278 277 276 276 276 276 275 275
296 297 297 296 296 296 296 297 296 295 294 294 294 295 295 294 293 291 289 288 287 287 287 288 288 288 288 287 287 287 287 288 288 288 287 287 286 286 285 285 284 284 284 283 284 286 286 285 284 284 285 284 284 283 282 282 281 281 281 281 280 280 279 279 279 278 278 278 278 278 278 278 278 278 278 278 278 277 276 276 276 275 275 275 275
296 296 296 295 295 295 294 294 293 293 293 293 294 294 294 293 291 289 287 287 287 287 287 287 287 287 287 287 287 287 287 288 287 287 287 287 286 286 285 285 284 284 284 284 286 288 288 285 284 284 285 284 283 282 282 281 281 281 281 281 280 280 279 279 279 279 278 278 278 277 277 278 278 278 278 278 277 276 276 276 275 275 275 274 275
295 296 295 295 295 294 293 292 293 293 292 293 294 294 293 291 289 287 286 286 286 286 287 287 287 287 287 287 287 287 287 287 287 287 286 286 286 286 285 285 285 284 284 285 287 289 288 286 284 284 285 285 284 283 282 281 281 281 281 280 280 279 279 279 279 279 278 277 277 277 277 277 278 278 278 277 277 276 276 275 275 274 274 274 274
295 295 294 294 294 293 293 293 293 293 292 292 293 292 291 289 288 287 286 286 286 286 286 286 286 286 286 286 287 287 287 287 287 286 286 286 286 285 285 285 285 285 286 286 288 290 288 286 285 285 285 285 284 283 282 281 281 280 280 280 279 279 279 279 279 279 278 277 277 276 277 277 277 278 278 277 276 276 275 275 274 274 273 273 273
294 294 293 293 293 293 292 292 292 291 291 290 290 289 289 288 287 286 286 285 285 286 286 286 286 286 285 286 286 286 286 286 286 286 286 286 286 285 285 285 286 287 287 287 288 289 288 287 286 285 285 285 284 283 282 281 281 280 280 279 279 279 279 279 279 279 278 278 277 277 277 277 277 277 277 276 275 275 275 274 274 274 273 273 272
294 294 293 292 292 292 292 292 291 289 288 288 287 287 288 288 287 286 285 285 285 285 286 286 285 285 285 285 285 285 285 286 286 286 286 286 285 285 285 286 287 288 287 286 286 287 288 288 287 286 285 285 285 284 283 282 281 280 280 279 279 279 279 279 279 279 279 278 278 277 277 277 277 277 276 276 275 275 275 274 273 273 273 272 272
294 294 293 292 291 291 291 290 289 288 287 286 286 286 286 287 287 285 285 285 285 285 285 285 285 285 284 284 284 285 285 285 286 286 286 286 285 285 286 288 289 287 286 285 285 284 285 286 287 286 285 284 284 284 283 282 281 280 280 280 279 279 279 279 279 279 278 278 277 277 277 277 277 276 276 275 275 275 274 274 273 272 272 272 272
293 293 293 292 291 291 290 290 288 288 287 286 286 286 287 287 286 285 285 284 284 285 285 285 285 284 284 284 284 284 284 285 285 286 286 285 285 285 287 288 288 286 285 284 283 282 284 285 286 286 284 284 283 284 283 282 281 280 280 279 279 278 278 278 279 278 278 277 277 277 277 276 276 276 276 276 276 275 274 273 273 272 272 272 272
292 292 292 292 291 291 290 289 288 288 288 288 288 288 288 288 287 286 286 285 285 285 285 284 284 284 284 284 284 284 285 285 286 285 285 284 285 286 287 286 285 284 283 282 282 282 283 285 285 284 283 283 283 282 282 281 281 280 280 279 278 278 278 279 279 278 278 277 276 276 276 276 276 276 277 277 277 276 275 274 273 272 272 272 272
292 292 292 292 291 291 290 289 289 289 289 290 290 289 289 289 287 286 286 286 285 285 284 284 284 283 284 284 284 285 285 285 285 284 284 284 284 285 284 284 283 283 283 282 282 282 283 284 284 284 283 282 282 282 281 281 281 281 280 279 278 278 280 280 278 278 278 277 276 276 275 276 276 277 277 277 277 276 275 274 273 272 271 271 271
292 292 292 291 291 291 290 290 290 290 290 290 290 290 290 288 287 286 285 285 285 284 284 284 284 284 285 285 285 285 285 284 284 284 284 284 283 283 282 283 283 283 283 282 282 282 282 283 284 284 284 283 282 281 281 280 280 280 279 279 278 279 280 280 278 278 277 276 276 276 276 276 276 276 277 277 277 276 275 275 273 272 270 270 270
292 292 292 291 291 291 291 291 291 291 291 291 290 289 289 288 287 287 286 285 284 284 284 284 284 285 286 285 285 284 284 283 283 284 283 283 283 282 282 282 282 282 282 283 282 282 282 282 283 283 284 284 283 282 281 280 280 279 279 279 279 279 279 278 277 277 276 276 276 275 275 275 275 275 276 276 276 276 275 274 273 271 270 269 269
292 292 292 291 291 291 290 291 291 291 291 291 290 289 288 288 288 287 286 285 285 284 285 285 285 285 284 284 283 283 283 283 283 284 283 283 282 282 281 282 282 282 282 282 282 282 282 282 283 283 283 283 283 282 281 280 279 278 278 279 279 278 278 277 277 276 276 275 275 275 275 274 274 274 275 275 275 275 275 274 273 271 270 269 269
292 291 291 291 290 290 290 290 290 290 290 290 290 289 288 287 287 287 286 286 285 285 284 284 284 283 283 283 283 283 283 283 283 283 283 282 282 282 281 281 281 281 281 282 282 282 282 282 282 282 282 282 282 281 281 280 279 279 279 279 279 279 278 277 277 276 276 275 275 275 275 275 274 274 275 275 275 275 275 274 273 271 270 270 269
291 290 290 290 290 290 290 290 290 290 290 289 289 289 288 287 287 286 286 286 285 284 284 283 283 283 282 282 283 283 283 283 284 284 283 283 283 282 282 282 281 281 281 281 281 282 282 282 282 282 282 281 281 281 281 280 280 280 280 280 280 280 280 279 278 277 276 276 276 275 275 275 275 275 275 276 275 275 274 274 272 271 270 270 269
290 290 289 289 289 289 289 289 289 289 289 289 289 288 287 287 286 286 286 285 285 284 283 283 283 282 282 282 282 283 284 284 284 284 284 284 283 283 282 281 281 281 282 282 282 282 282 282 282 282 281 281 281 281 281 280 280 280 281 281 281 281 280 280 279 278 277 276 276 276 275 275 276 276 276 275 275 274 274 273 272 272 271 270 269
289 289 289 289 289 289 289 288 288 289 289 289 289 289 288 288 287 286 285 284 284 284 283 283 283 282 282 282 282 283 284 284 285 284 284 283 283 283 282 281 281 280 281 282 282 282 282 282 282 282 282 281 281 281 280 280 280 280 280 281 281 281 281 280 280 279 278 277 277 276 276 276 275 275 275 274 274 274 273 273 272 271 270 269 268
289 288 289 289 288 289 288 288 288 288 288 288 288 288 288 288 287 286 285 284 284 283 283 283 282 282 282 283 283 283 284 284 285 285 284 284 284 283 283 282 281 280 280 280 280 281 281 281 281 281 281 281 281 280 280 280 280 280 280 280 280 280 280 280 280 279 279 278 277 277 276 275 275 274 274 273 273 273 273 272 271 270 269 268 267
289 288 288 288 288 288 288 288 288 287 287 287 288 287 287 287 287 287 286 286 285 285 284 283 284 284 284 285 284 283 283 284 285 286 285 285 284 284 283 282 282 281 280 280 280 280 280 280 280 280 280 280 280 280 279 279 279 279 279 279 279 279 279 279 279 279 278 277 277 276 276 275 274 274 273 273 273 273 272 272 271 270 269 268 267
288 288 288 288 288 288 288 288 288 288 287 287 287 287 287 287 287 287 288 288 288 287 287 286 287 287 287 286 285 284 284 285 286 286 285 284 284 283 283 282 282 282 281 281 280 279 279 278 278 278 278 279 279 279 279 279 278 278 278 278 278 278 278 278 278 278 278 277 276 276 275 274 274 273 273 272 272 272 272 271 270 269 268 267 266
288 288 288 288 288 288 288 288 288 288 287 286 286 286 286 287 287 287 287 287 287 287 287 287 287 287 286 286 286 285 284 285 285 284 283 283 283 282 282 282 281 281 281 280 279 278 277 277 277 277 277 278 278 278 278 278 278 278 277 277 277 277 277 277 277 277 277 276 276 275 274 273 273 272 272 272 272 272 271 271 269 268 267 266 266
287 287 287 288 288 288 287 287 287 287 287 286 285 285 284 285 285 286 286 286 286 286 286 286 285 285 285 285 285 284 284 283 283 283 282 282 282 281 281 280 280 280 279 279 278 277 277 277 277 277 277 277 277 278 278 277 277 277 277 277 276 276 276 276 276 276 276 275 275 274 273 273 272 272 272 272 271 271 271 270 268 267 266 266 266
289 287 287 288 288 287 287 287 286 286 286 285 285 285 284 284 283 284 285 285 285 285 285 285 284 284 284 284 283 283 283 282 282 281 281 280 280 280 279 279 279 279 279 278 278 277 277 277 277 277 277 277 277 277 277 277 276 276 276 276 276 275 275 275 275 275 275 274 274 273 273 272 272 272 272 271 271 270 270 269 268 267 266 266 265
290 289 288 287 287 286 286 286 286 286 286 286 286 286 286 285 284 283 283 284 284 284 284 283 283 283 283 282 282 282 281 281 281 280 280 279 279 279 279 279 279 279 279 279 279 279 278 278 277 277 277 277 277 276 276 276 276 276 276 275 275 275 275 275 275 274 274 274 273 273 272 272 272 271 271 271 270 270 269 268 268 267 266 265 265
290 290 290 289 288 287 287 287 287 287 287 287 287 287 287 287 286 284 283 282 282 282 282 282 281 281 281 281 281 281 280 280 280 279 279 279 279 279 279 279 279 279 279 279 279 279 279 278 278 277 277 276 276 276 276 276 276 276 275 275 275 275 274 274 274 273 273 273 272 272 272 272 271 271 270 270 270 269 268 268 267 267 266 266 266
290 290 290 290 290 289 289 288 288 288 288 287 287 287 287 287 286 285 284 283 281 281 281 280 280 280 281 280 280 280 280 280 280 280 280 279 279 279 279 279 279 279 279 279 279 279 279 279 278 278 277 277 276 276 276 276 276 275 275 275 275 274 274 274 273 273 273 273 272 272 272 271 271 271 270 270 269 268 268 267 267 267 266 266 266
290 290 290 289 289 289 289 288 288 288 288 287 287 287 286 286 285 284 284 283 282 281 281 280 280 280 280 280 280 279 279 279 279 279 279 279 280 280 280 280 280 279 279 279 279 279 279 279 278 278 278 277 276 276 276 276 275 275 275 274 274 274 273 273 273 273 272 272 272 271 271 271 271 271 270 270 269 268 268 267 267 267 266 266 265
290 290 289 289 289 288 288 288 287 287 287 287 286 286 285 284 284 283 282 282 282 282 281 280 280 279 279 279 279 279 278 278 278 278 278 278 279 279 279 280 280 279 279 279 279 278 278 278 278 278 277 277 276 276 276 275 275 275 275 274 274 273 273 273 273 273 272 272 271 271 271 271 271 271 270 269 269 268 268 268 267 266 265 265 265
289 289 289 288 288 287 287 287 286 286 286 285 285 284 283 283 282 282 282 281 281 281 280 280 279 278 277 278 278 278 277 277 277 276 276 277 277 277 278 278 279 279 279 278 278 278 278 278 278 277 277 277 276 276 275 275 275 275 274 274 274 273 273 273 273 272 272 272 271 271 271 271 270 270 270 269 268 268 268 267 267 266 265 264 264
287 287 287 287 286 286 286 286 285 284 284 283 283 282 282 282 281 281 281 281 280 280 279 279 278 277 277 277 276 276 276 275 275 275 275 275 275 275 276 276 277 277 277 277 277 277 277 277 277 277 276 276 276 275 275 275 274 274 274 274 273 273 273 272 272 272 271 271 271 271 271 270 270 269 269 269 268 268 267 267 266 265 264 264 264
286 285 285 285 285 285 284 284 284 283 282 282 282 282 281 281 281 281 280 280 279 279 278 278 278 277 277 276 275 275 275 274 274 274 274 274 274 274 274 274 275 275 275 275 275 275 276 276 276 275 275 275 275 275 275 274 274 274 274 273 273 273 272 272 271 271 270 271 270 270 270 270 269 269 268 268 268 268 267 266 265 265 264 264 263
285 284 284 284 284 283 283 283 282 282 282 282 282 281 281 281 280 280 279 278 278 277 277 276 276 276 276 275 275 274 273 273 273 273 273 273 273 273 273 273 273 274 274 274 274 274 274 274 274 274 274 274 274 274 273 273 273 273 273 272 272 272 271 271 271 270 270 270 270 269 269 269 268 268 267 267 267 267 266 265 264 264 263 263 263
284 284 283 283 282 282 282 282 281 281 281 281 281 280 280 279 279 278 278 277 276 276 275 274 274 274 274 273 273 272 272 272 272 272 272 272 271 271 271 272 272 272 272 272 272 272 272 272 272 272 272 272 272 272 272 272 271 271 271 271 271 271 270 270 270 270 270 269 268 268 268 268 267 267 267 266 265 265 264 264 264 263 263 263 263
283 283 283 282 281 281 281 281 281 280 280 280 280 279 278 278 277 277 276 275 275 274 274 274 273 273 272 271 271 271 271 271 271 271 271 270 270 270 270 270 270 270 270 270 271 271 271 271 271 271 271 270 270 270 270 270 270 270 269 269 269 269 269 269 269 269 268 268 267 267 267 266 266 266 266 265 264 264 263 264 263 263 262 262 262
282 281 281 281 280 280 280 280 280 280 279 279 278 277 276 276 275 274 274 274 274 273 273 273 272 271 271 270 270 270 270 270 270 270 269 269 269 269 269 269 269 269 269 269 269 269 269 269 269 269 269 269 269 269 268 268 268 268 268 268 268 268 268 268 267 267 267 266 266 266 265 265 265 265 265 264 264 263 263 263 263 262 262 262 262
280 280 280 280 279 279 279 278 278 278 277 276 275 275 274 273 273 273 273 273 273 272 271 271 270 270 270 270 269 269 269 269 269 269 268 268 268 268 268 268 268 267 267 267 267 267 267 267 267 268 267 267 267 267 267 267 267 267 267 267 267 267 267 267 266 266 265 265 265 264 264 264 264 264 264 264 263 262 262 262 262 262 262 261 261
279 280 279 279 278 278 277 276 276 275 275 274 273 273 272 272 272 272 272 272 271 271 270 270 269 269 269 269 269 269 268 268 268 268 267 267 267 267 267 267 267 267 267 267 267 267 266 266 266 266 266 266 266 266 266 266 266 266 266 266 266 266 266 266 266 265 265 265 264 264 263 263 264 264 264 263 262 261 261 262 261 261 261 261 261
278 278 277 277 277 276 275 274 273 273 272 272 272 272 271 271 271 271 270 270 269 269 269 269 268 268 268 268 268 268 267 267 267 267 267 267 267 267 267 266 266 266 266 266 266 266 266 266 266 265 265 265 265 265 265 265 265 265 265 265 265 265 265 265 265 264 264 264 264 263 263 263 263 263 263 262 262 261 261 261 261 261 261 261 261
275 275 275 275 274 274 273 272 271 271 271 270 270 271 271 270 270 269 268 268 268 268 268 268 268 267 267 267 267 267 267 267 267 267 266 266 266 266 266 266 265 265 265 265 265 265 265 265 265 265 265 264 264 264 264 264 264 264 264 264 264 264 264 264 264 264 264 263 263 263 263 263 263 263 262 262 261 261 261 261 261 260 260 260 260
273 273 273 273 272 272 272 271 270 270 270 270 270 269 269 268 268 268 267 267 267 267 267 267 267 267 266 266 266 266 266 266 266 266 266 265 265 265 265 265 265 265 264 264 264 264 264 264 264 264 264 264 264 264 263 263 263 263 263 263 263 263 263 263 263 263 263 263 263 263 263 263 263 263 262 262 261 261 260 260 260 260 260 259 259
271 271 271 271 271 271 270 270 269 269 269 269 269 268 268 267 267 267 267 267 267 266 266 266 266 266 266 266 266 266 266 265 265 265 265 265 264 264 264 264 264 264 264 264 264 263 263 263 263 263 263 263 263 263 263 263 263 263 263 263 263 263 263 263 263 263 263 262 262 262 262 262 262 262 262 261 261 261 260 260 259 259 259 259 259
270 270 270 270 269 269 269 269 268 268 268 268 268 268 267 267 267 266 266 266 266 266 266 266 266 266 266 265 265 265 265 265 265 264 264 264 264 264 264 264 264 264 264 263 263 263 263 263 263 263 263 263 263 263 263 263 263 263 263 263 263 263 263 263 263 262 262 262 262 262 262 262 262 262 261 261 261 261 260 260 259 259 258 258 258
Wind_Speed
34 35 36 36 36 36 36 35 35 35 34 34 36 38 36 33 32 32 33 34 36 37 39 40 40 39 37 36 35 34 32 31 29 28 27 26 26 25 24 24 23 23 22 21 20 19 17 15 14 12 12 11 10 9 8 8 8 8 7 5 5 5 5 4 5 6 6 9 12 13 16 17 17 17 18 19 20 19 17 15 11 9 10 13 15
34 36 37 37 37 37 37 36 36 36 35 35 36 36 34 32 31 31 32 34 36 38 40 40 39 38 36 35 34 33 32 30 29 28 27 27 26 25 24 24 24 23 22 21 21 19 17 15 13 13 13 12 10 9 9 9 9 8 8 7 6 7 6 5 5 6 6 7 10 13 15 17 17 17 18 19 19 18 16 14 11 9 10 12 15
34 36 37 38 38 37 36 37 37 36 36 36 35 33 32 31 30 30 32 35 37 39 40 40 38 36 35 34 33 32 31 30 30 29 28 27 26 25 24 24 24 23 22 22 21 19 17 15 14 13 12 11 10 10 11 11 10 9 9 9 8 8 9 7 6 6 7 7 8 10 13 16 18 18 19 19 18 17 15 13 12 11 11 13 14
35 36 37 37 37 36 35 36 36 36 36 36 34 32 31 30 30 30 33 36 38 40 40 38 37 35 34 34 33 32 32 31 30 29 28 26 26 25 24 24 23 22 22 21 19 18 16 15 14 13 12 12 12 12 13 12 12 11 11 11 10 10 11 10 9 8 7 8 8 9 13 17 18 18 18 17 15 14 13 12 11 10 11 13 15
36 36 36 36 35 35 35 35 35 36 36 36 34 32 31 30 30 31 34 37 39 40 39 38 37 36 36 35 34 34 33 32 30 29 28 26 25 24 24 23 22 22 21 20 18 16 15 14 14 13 13 14 14 15 14 14 13 13 13 12 12 12 12 11 11 10 9 9 9 10 13 16 17 16 15 13 12 12 12 11 10 10 10 12 15
36 36 36 36 36 35 36 36 37 37 37 37 35 33 32 31 31 32 35 38 40 41 40 40 39 38 37 36 36 35 34 32 31 30 28 27 25 24 24 23 22 22 21 19 17 15 14 14 14 15 15 16 16 16 15 15 15 14 14 14 14 13 13 12 12 11 11 10 10 10 12 12 13 13 12 10 11 11 10 10 9 9 9 11 14
37 37 37 37 37 37 37 38 38 38 39 38 36 35 34 33 33 34 37 39 41 42 42 41 40 39 38 38 37 36 34 33 32 30 29 28 27 26 25 24 23 23 21 19 17 16 15 16 17 17 17 17 17 17 17 17 17 16 16 16 16 15 14 12 12 12 11 10 9 9 10 11 11 12 11 10 11 11 10 9 9 9 9 10 13
38 38 38 38 39 39 39 39 39 39 40 39 38 37 35 34 34 35 37 40 42 43 43 42 41 40 40 39 38 36 35 34 33 31 30 29 29 28 27 25 24 23 21 20 19 18 18 19 20 20 20 19 19 19 19 19 19 18 18 18 17 17 15 13 13 12 10 10 10 9 9 10 11 10 10 9 9 9 8 8 10 11 10 11 14
39 40 40 39 40 40 39 39 39 39 40 39 38 38 36 35 34 35 38 40 42 42 43 42 42 41 40 39 38 37 36 35 34 34 33 31 30 29 27 25 24 23 22 22 20 19 20 22 23 22 22 21 21 21 21 21 20 20 20 19 19 19 17 15 15 14 11 10 10 9 9 10 10 9 9 9 9 9 8 9 11 12 11 13 14
41 41 41 40 40 39 39 39 39 39 39 39 38 37 36 35 35 36 39 41 42 42 42 42 42 42 41 40 39 38 37 36 35 35 33 32 31 30 28 26 24 24 24 23 22 21 23 25 25 25 23 23 23 24 23 23 23 22 21 21 21 21 20 19 18 17 14 12 11 10 10 11 11 10 10 10 9 9 8 9 11 11 11 13 12
41 42 42 40 38 38 38 39 39 39 39 39 38 37 36 35 36 37 39 41 42 42 42 42 43 42 42 41 40 39 39 38 36 34 33 32 31 30 28 27 26 26 25 25 24 24 25 27 27 27 26 26 27 27 26 26 25 24 23 23 23 23 23 22 21 20 19 16 14 12 12 13 12 10 11 10 8 8 8 8 10 11 10 11 11
40 40 40 39 38 38 38 39 40 40 39 39 38 37 37 36 37 38 39 41 41 41 42 42 43 42 41 41 40 40 40 38 36 35 35 33 31 30 29 28 27 27 27 27 27 27 28 29 29 29 29 29 30 29 28 28 28 26 25 25 25 25 25 24 22 22 22 20 19 17 15 13 12 11 10 10 9 8 9 9 9 10 10 11 12
38 38 37 38 38 38 39 40 40 41 40 40 39 38 37 37 37 38 39 40 40 40 41 41 41 40 40 40 41 41 40 39 37 37 36 34 33 31 30 29 28 28 29 30 31 31 31 31 32 32 32 32 31 31 30 30 30 28 27 26 27 27 26 25 24 23 22 21 22 23 19 15 13 12 11 10 10 9 10 10 9 10 11 12 12
33 35 34 36 38 39 39 39 40 40 39 38 37 37 36 35 36 37 38 38 39 39 39 40 40 40 40 41 41 40 39 38 37 37 36 35 34 32 31 29 29 30 33 35 36 35 34 33 34 35 35 34 33 33 32 32 31 29 28 28 28 28 26 26 24 23 22 22 24 25 22 18 16 14 11 11 12 11 11 11 10 10 12 14 15
31 31 32 35 37 38 39 39 38 38 37 35 35 36 35 35 35 36 37 37 38 38 38 38 38 39 39 40 39 39 38 38 37 37 37 35 34 32 31 30 31 35 38 39 39 38 36 35 35 36 37 36 35 34 33 33 32 31 30 29 29 29 28 28 26 24 24 24 24 24 23 20 19 16 13 13 13 12 11 11 11 13 16 19 18
33 31 32 35 37 38 39 38 36 36 35 34 33 34 35 35 35 36 36 36 36 37 37 38 38 38 38 37 37 38 38 38 38 37 36 35 33 32 32 33 37 40 41 42 42 41 39 37 37 38 38 38 37 35 34 34 33 32 32 32 32 31 32 32 30 28 27 27 27 26 24 21 20 19 17 14 12 11 12 12 12 13 15 17 16
34 33 33 34 36 38 38 37 34 33 34 33 33 34 35 35 35 36 36 36 36 37 37 37 37 37 36 36 37 37 37 37 37 37 37 35 34 33 35 38 41 42 43 43 42 41 40 40 39 39 39 39 38 36 35 34 34 34 33 33 34 35 36 35 33 31 30 30 30 29 27 26 24 22 19 16 14 13 11 11 10 9 12 15 15
34 35 35 35 37 39 39 36 34 33 35 35 35 35 35 35 36 36 36 36 36 36 36 35 35 35 36 36 36 36 35 36 36 37 37 36 35 36 37 38 40 41 42 42 41 40 41 41 40 39 39 39 38 37 35 35 36 36 35 34 35 38 39 37 36 35 32 31 31 30 29 28 25 22 21 19 18 18 15 13 10 8 13 16 15
35 38 38 37 38 39 38 36 35 35 36 36 36 36 35 34 35 34 34 34 34 34 34 33 33 33 33 33 34 35 35 36 37 36 37 38 38 37 35 34 36 39 40 39 39 40 42 43 42 40 39 38 38 38 36 36 37 37 36 35 36 40 41 39 37 37 34 32 32 31 29 26 23 23 25 24 24 25 23 21 14 9 13 16 13
36 37 36 36 36 37 37 36 35 36 36 36 35 34 33 32 32 32 32 32 31 31 31 31 31 31 31 32 34 35 36 36 35 35 36 36 36 35 33 33 35 37 38 37 38 39 41 42 43 41 39 38 39 39 38 38 39 38 37 36 38 40 40 37 35 34 33 32 31 31 29 26 24 26 28 27 28 28 27 26 21 15 15 16 13
35 35 34 35 35 35 35 36 36 35 35 34 33 32 32 31 31 31 31 30 29 29 29 29 29 29 30 32 33 34 34 33 33 33 32 32 32 32 33 35 36 37 36 37 37 39 40 41 42 42 41 39 39 40 40 39 38 38 39 41 41 39 35 32 30 29 28 28 29 29 29 28 28 29 29 29 30 30 28 27 24 20 19 18 15
34 34 34 34 34 34 34 35 34 33 33 32 31 30 30 30 29 29 30 29 28 28 27 27 27 28 29 30 30 30 30 30 30 30 30 30 30 30 32 34 35 34 35 36 38 39 41 41 42 43 41 40 40 39 39 38 37 38 39 39 37 35 33 31 29 28 26 26 25 25 27 28 30 30 29 30 31 30 29 26 23 21 21 20 16
33 32 32 32 32 32 33 33 32 32 31 31 30 29 29 28 28 28 28 28 27 26 26 26 26 27 27 27 28 28 28 28 28 27 27 27 27 29 30 32 32 32 34 37 38 39 40 40 41 40 39 38 37 36 36 34 33 34 34 31 28 27 26 26 25 23 23 22 19 18 20 25 29 30 30 31 31 29 28 26 22 22 24 22 18
30 30 30 30 31 31 31 32 31 31 30 30 29 29 28 28 27 27 26 26 26 26 25 26 26 26 25 25 26 26 26 26 25 25 25 24 25 26 28 29 30 31 33 36 38 38 38 37 37 36 35 35 35 34 34 34 32 32 29 26 23 23 23 24 23 21 19 18 16 18 22 27 29 30 30 30 29 28 27 25 22 21 23 24 22
29 29 30 30 31 31 31 30 30 30 30 29 29 29 28 27 27 26 26 26 27 27 26 25 26 25 25 25 24 24 24 24 23 22 22 22 23 24 26 27 29 30 31 33 33 34 34 35 35 34 33 33 32 32 32 32 31 30 28 25 24 23 22 23 23 22 22 22 22 25 29 31 30 30 30 28 27 27 26 23 21 21 21 23 24
29 29 30 30 31 31 30 29 29 29 28 28 27 27 27 27 27 27 27 27 27 27 26 25 25 25 24 24 23 22 22 21 20 20 20 21 22 23 24 26 27 28 30 30 30 30 30 30 30 29 29 28 29 30 30 28 26 26 26 26 25 23 21 20 21 23 26 28 29 30 31 30 29 29 28 26 26 26 25 21 20 20 20 22 23
29 29 30 30 30 30 30 30 28 27 27 26 26 26 26 27 28 28 29 28 28 27 25 25 25 24 23 23 22 20 19 19 19 19 19 20 20 20 21 23 24 26 29 31 31 31 30 28 25 22 21 21 23 25 27 26 24 23 23 23 24 25 25 25 25 25 27 28 29 30 29 28 26 26 26 25 25 25 23 20 19 19 20 20 21
29 29 29 29 29 29 29 29 28 27 27 27 27 27 27 27 28 29 29 28 28 28 27 26 25 24 23 22 20 18 19 19 18 16 15 16 17 17 19 20 21 23 25 27 27 28 28 28 26 22 19 18 19 20 21 22 23 24 24 24 25 27 28 28 27 26 26 26 26 27 26 25 24 24 24 24 23 22 21 19 18 19 19 19 18
27 27 28 28 28 28 27 27 28 28 28 27 27 26 26 27 27 26 25 24 23 22 22 22 21 19 19 19 18 17 18 17 13 11 11 12 13 15 16 17 17 19 20 19 21 23 25 25 24 21 18 17 17 17 19 21 23 24 25 25 25 25 25 26 27 28 28 28 28 26 24 23 23 23 22 22 22 21 20 18 19 19 18 17 17
27 27 27 28 28 27 27 27 27 28 28 27 26 24 23 23 24 23 21 19 18 17 15 15 15 14 14 15 15 14 15 13 11 10 12 13 13 14 15 15 15 15 14 13 16 20 20 18 16 15 15 15 15 15 16 18 21 22 24 25 25 25 25 27 29 30 30 30 29 27 25 24 23 22 22 22 22 21 19 19 18 18 18 18 16
28 27 28 28 29 29 29 28 28 28 28 28 27 25 22 20 20 20 18 15 15 15 15 14 13 12 13 14 13 13 14 13 13 13 13 13 13 13 14 14 14 14 13 13 15 16 15 13 13 12 13 14 13 12 12 14 17 20 22 23 23 23 25 27 28 30 30 29 28 27 25 24 23 23 23 23 22 20 19 18 16 16 16 16 14
31 30 29 29 29 29 29 29 29 29 28 28 27 25 22 19 17 16 16 15 15 14 14 14 14 14 14 14 13 13 13 13 13 13 12 11 11 11 11 12 12 12 12 13 14 14 12 12 12 10 10 12 12 10 10 12 13 15 17 18 19 21 24 26 27 28 28 28 28 27 25 24 24 23 23 22 21 19 18 17 16 15 13 11 11
32 32 31 30 29 29 28 28 28 28 28 28 26 25 23 21 19 16 14 14 14 14 14 14 14 14 13 12 12 12 11 11 10 10 9 10 10 10 11 12 12 12 13 14 15 14 12 12 12 11 10 11 11 9 10 11 12 11 12 15 18 21 24 25 25 25 26 27 27 26 26 25 24 24 23 23 21 20 19 18 18 15 11 10 11
30 31 31 30 30 29 28 28 28 27 26 26 25 24 23 22 21 20 17 15 13 13 13 13 13 13 11 9 9 10 9 9 9 9 10 10 10 10 11 11 12 14 15 16 16 15 13 12 12 11 11 11 11 11 11 10 10 10 12 15 18 19 21 22 22 23 24 24 25 25 25 25 24 23 23 22 22 21 19 19 19 17 13 12 13
27 29 28 28 28 28 27 27 26 25 24 24 23 23 22 21 20 20 20 19 17 16 14 13 13 13 12 11 11 11 11 10 10 10 11 11 10 10 11 11 12 14 15 16 16 16 15 14 12 12 13 13 13 13 14 13 12 12 13 14 15 15 16 18 20 21 21 22 23 23 23 23 23 23 23 22 21 21 20 20 20 20 18 16 15
24 26 26 26 26 26 25 25 24 23 23 22 21 21 21 20 19 18 18 18 17 16 15 14 13 13 13 13 14 15 14 13 12 11 11 11 11 12 13 13 13 13 14 14 14 14 14 13 13 14 15 14 12 12 12 14 16 17 16 15 13 14 15 17 18 19 20 20 21 21 21 21 21 21 22 23 23 23 23 22 22 21 21 21 19
22 24 24 24 23 23 23 22 21 20 20 20 20 19 18 18 18 17 16 15 15 14 13 13 14 13 13 14 14 15 16 16 15 13 12 10 11 13 14 14 13 12 13 14 14 15 14 14 13 13 13 14 13 12 10 12 16 18 18 17 16 15 16 17 17 18 18 19 20 20 20 21 20 21 21 23 23 24 23 24 23 21 20 21 19
20 21 22 22 21 21 20 20 19 19 18 18 19 18 18 17 16 15 15 14 13 13 14 15 15 15 15 14 14 14 14 14 14 14 13 11 10 12 14 14 14 13 13 13 14 15 15 14 13 11 11 11 12 12 11 11 13 15 16 17 16 16 15 16 17 18 18 19 20 20 21 21 21 21 22 22 23 24 23 23 22 17 13 14 16
19 19 19 19 19 19 20 20 20 20 19 19 18 18 17 17 16 15 14 14 14 15 15 15 15 15 15 14 13 12 12 12 12 14 14 13 11 11 13 16 17 16 15 14 14 14 15 15 14 14 14 14 14 14 13 13 13 14 15 15 16 17 17 17 17 18 19 20 21 21 22 22 21 21 22 22 22 23 23 23 22 18 11 10 12
20 19 19 19 19 19 19 20 20 20 19 19 18 17 16 16 15 15 15 15 15 15 15 15 14 14 14 13 12 11 11 12 12 12 13 13 13 13 13 16 18 18 17 16 15 15 16 16 16 17 17 17 17 18 18 17 17 17 18 17 18 18 18 17 17 18 19 20 21 21 21 22 21 21 21 21 21 22 22 21 21 19 14 11 11
21 21 20 19 19 19 19 18 18 18 17 17 16 16 15 15 15 15 15 16 16 15 14 14 14 13 13 12 11 10 11 11 11 11 11 11 12 13 14 15 17 17 17 17 15 14 14 14 14 14 14 15 15 16 16 17 17 17 17 17 17 17 17 17 18 18 19 19 20 20 20 21 20 20 20 19 19 20 19 18 18 16 14 13 13
20 21 21 20 19 19 19 18 18 17 16 15 15 15 15 15 15 16 16 16 16 15 14 14 13 11 11 10 10 10 10 10 9 9 10 10 11 12 13 14 15 16 16 16 16 15 14 14 13 13 13 13 13 13 14 14 14 15 15 15 16 16 17 17 18 19 19 18 19 19 19 19 19 18 18 18 17 17 17 17 16 14 12 12 14
19 20 20 19 19 18 18 17 17 17 16 16 15 15 16 16 16 16 16 16 15 14 14 13 12 12 11 11 10 10 10 9 8 8 9 10 11 12 12 13 14 14 15 15 16 16 16 16 16 15 15 15 15 15 15 16 16 16 16 17 17 18 18 18 18 19 19 18 18 19 19 18 17 17 17 17 17 16 16 16 17 15 14 14 15
18 18 18 18 18 17 16 16 16 16 16 16 16 17 17 17 17 16 16 15 14 13 13 13 13 13 13 12 11 10 10 9 8 9 9 10 10 11 12 13 13 13 14 14 14 15 15 16 16 17 17 17 17 17 17 17 17 17 17 17 18 18 19 18 18 18 18 17 17 17 17 17 17 16 16 17 17 16 16 16 17 17 16 15 14
17 18 18 18 18 17 17 17 17 17 17 18 18 18 17 17 16 16 15 14 13 13 13 13 13 13 13 12 11 10 10 9 9 9 10 10 10 11 12 12 12 13 13 12 12 12 13 13 14 14 14 15 15 15 15 15 15 15 15 16 16 17 16 16 16 16 16 16 16 16 16 16 17 17 17 16 16 16 16 16 16 16 16 15 15
16 17 17 18 18 18 18 18 18 18 18 19 19 18 18 16 15 14 13 13 14 14 14 14 13 13 12 11 10 10 10 10 10 11 11 11 12 12 12 12 12 12 12 11 11 11 11 11 11 11 12 13 13 13 14 14 14 14 15 15 16 16 16 15 15 16 16 16 17 17 16 16 17 18 18 16 15 15 16 16 15 15 16 16 16
15 16 17 18 18 19 19 18 18 18 18 18 18 17 17 15 14 14 14 14 14 14 14 13 13 12 11 11 10 10 10 10 10 11 11 11 12 13 13 12 12 12 11 11 11 10 10 10 10 10 11 11 12 12 12 13 13 13 14 15 15 15 15 15 16 16 17 17 17 17 17 17 17 18 18 17 16 16 16 16 16 16 16 16 16
15 16 17 17 18 18 18 18 18 18 18 18 16 15 15 15 14 15 15 14 14 14 13 12 11 11 10 10 10 10 10 10 10 10 11 11 12 12 12 12 12 12 12 11 11 10 10 10 10 10 10 11 11 11 12 12 12 13 13 13 14 14 14 15 15 16 16 16 17 17 18 18 19 18 18 17 17 17 17 17 16 16 15 16 16
14 15 16 16 17 17 17 18 18 18 17 16 16 15 15 14 14 14 14 13 13 12 11 11 10 10 10 10 10 9 9 9 10 10 11 11 12 12 12 12 12 12 12 11 11 11 11 10 10 10 11 11 11 11 11 12 12 12 12 13 13 13 14 14 15 15 15 16 16 17 17 18 19 19 19 19 18 18 18 17 17 15 14 14 15
13 13 14 15 15 15 16 16 16 15 15 14 14 14 14 13 13 13 12 11 11 11 10 10 10 9 9 9 9 9 9 9 10 11 11 12 12 12 12 12 12 12 12 12 12 12 11 11 11 11 11 11 11 11 11 11 11 11 12 12 13 13 14 14 15 15 15 15 16 16 17 18 19 20 20 20 20 19 19 18 17 16 15 14 15
12 12 13 13 14 14 14 14 13 13 13 12 12 12 12 12 11 11 11 10 10 10 10 9 9 8 9 8 9 9 9 10 11 11 12 12 12 12 12 12 12 12 12 12 12 11 11 11 11 11 11 12 12 12 12 12 12 12 12 13 13 14 14 15 15 15 15 16 16 17 18 19 20 20 20 20 20 20 20 19 18 17 16 16 16
Wind_Direction
206 207 209 211 211 213 214 213 212 212 214 212 205 201 203 207 211 213 212 209 204 200 198 197 196 196 194 193 192 191 191 189 189 189 189 189 189 189 188 188 190 191 189 188 188 187 187 186 187 188 193 197 201 206 215 221 225 227 229 231 236 236 222 227 259 269 274 286 292 295 301 309 315 316 317 320 323 326 327 329 336 341 341 344 342
205 207 209 210 212 213 214 213 212 213 213 209 204 204 206 209 212 214 213 209 204 199 197 196 196 195 194 193 192 191 191 190 190 190 190 191 190 190 191 191 192 192 191 191 191 190 190 191 194 196 200 206 210 217 225 229 230 235 241 240 238 245 242 232 251 267 264 275 290 296 302 309 315 315 315 317 320 323 325 324 330 340 344 345 339
205 207 208 210 211 213 214 214 212 211 210 207 205 206 208 210 213 214 213 208 202 198 197 196 195 194 194 193 193 193 192 192 192 193 193 194 193 192 194 196 195 195 196 195 195 194 194 196 201 205 208 214 222 227 231 234 236 238 244 247 244 251 258 249 243 258 268 271 280 289 296 304 310 311 312 315 318 320 319 312 314 325 336 341 333
207 207 207 209 210 211 212 212 211 209 208 207 206 208 210 212 213 214 212 206 201 198 197 196 195 195 195 194 195 195 195 195 195 195 195 196 196 196 198 200 200 199 201 202 200 200 202 205 210 213 217 223 229 233 235 237 240 242 245 250 251 253 260 260 252 250 263 274 277 282 290 299 304 306 310 314 314 311 304 294 295 303 314 327 331
207 207 207 207 208 209 210 210 209 209 208 207 208 210 212 213 214 213 211 206 201 199 197 197 197 197 197 197 197 197 198 198 197 197 197 198 199 201 203 204 204 204 207 208 208 208 211 215 220 222 225 229 233 237 239 241 243 244 245 249 252 254 257 261 260 257 258 267 274 281 291 298 301 304 306 304 301 300 292 281 282 285 291 312 327
207 206 206 206 207 208 208 208 208 208 208 209 209 211 213 214 214 213 210 206 202 200 198 198 198 199 199 200 200 200 200 200 200 200 200 200 201 204 207 208 208 209 210 212 214 217 220 225 230 231 232 234 237 241 243 244 245 245 247 249 251 253 255 257 259 261 261 265 272 280 288 291 292 296 294 286 289 294 289 281 282 282 282 297 316
205 205 206 206 207 208 207 208 208 208 208 209 211 212 214 214 213 213 211 207 203 200 199 199 199 200 201 202 202 203 202 202 203 204 204 204 204 206 208 209 211 213 213 214 216 220 226 232 235 236 237 239 241 244 245 245 246 246 247 249 249 249 250 250 254 260 261 262 268 274 279 280 280 284 282 279 282 281 281 289 292 291 288 288 305
203 204 205 206 208 209 209 209 210 209 209 209 210 212 213 213 213 213 211 207 204 202 201 200 200 201 203 204 204 204 204 204 205 206 207 207 208 209 210 210 211 214 215 216 217 222 231 236 238 239 241 244 245 247 247 246 246 246 245 246 247 246 245 244 249 255 254 256 263 266 271 274 273 275 274 273 277 273 275 291 295 298 298 291 301
203 203 204 206 208 210 210 211 210 210 209 208 209 210 212 212 212 212 210 207 205 204 203 202 202 202 203 204 205 206 206 207 209 210 209 209 210 212 213 212 213 215 217 218 219 226 235 239 241 242 244 248 250 249 249 248 247 247 247 247 247 244 243 242 245 250 247 246 254 257 262 266 264 267 268 264 269 276 283 291 293 298 302 297 300
202 204 205 207 209 209 210 210 209 207 207 207 208 209 211 211 212 211 209 207 205 205 204 203 204 204 204 204 205 207 208 210 212 213 213 213 213 214 214 215 216 217 219 220 223 231 238 241 242 244 247 250 251 250 250 250 249 249 249 251 250 247 245 243 244 246 243 240 244 247 252 258 257 258 265 265 268 277 284 291 295 300 306 304 302
202 204 206 206 208 208 207 207 206 206 206 207 208 210 210 210 210 209 207 206 205 205 204 204 206 206 207 206 207 208 210 212 213 214 215 216 217 217 217 217 218 219 221 222 227 236 241 242 243 245 247 249 249 250 250 250 250 250 251 253 254 252 250 249 248 248 244 241 243 244 244 252 257 257 261 267 269 272 279 288 294 298 305 305 301
201 203 205 205 206 206 205 205 205 206 206 207 208 209 210 209 208 207 206 206 205 205 205 206 207 207 208 209 209 211 212 213 214 215 215 217 219 220 221 220 220 222 223 225 231 238 241 242 243 246 247 248 249 250 251 252 252 253 253 254 255 255 254 253 253 251 248 247 247 247 244 247 256 256 254 260 263 269 278 281 285 289 289 291 292
201 202 203 204 204 204 205 205 205 205 206 207 207 208 207 207 207 206 206 206 205 205 206 207 208 208 209 210 212 214 214 214 214 216 217 218 219 220 222 223 224 227 229 231 234 237 239 240 242 245 247 248 249 250 251 253 254 254 254 254 254 255 254 254 254 254 253 252 252 252 249 247 253 254 250 255 260 268 276 274 275 280 276 279 284
198 200 201 203 203 203 204 205 205 205 204 204 205 205 205 206 207 207 207 206 206 207 207 208 209 209 210 212 214 216 216 216 217 219 220 221 221 222 222 225 229 234 236 236 236 236 238 240 242 245 247 247 248 249 250 251 252 252 252 253 253 254 254 254 255 255 254 255 254 254 254 254 255 253 250 255 259 263 270 270 270 271 269 277 283
194 196 199 202 202 202 204 204 202 202 201 200 200 202 203 205 206 207 207 208 208 209 209 210 209 211 212 213 215 216 217 218 219 221 223 223 223 223 225 230 237 239 239 238 238 237 239 241 244 246 248 248 249 250 251 251 250 250 251 252 251 252 252 253 255 256 257 258 257 256 258 258 253 248 249 256 257 258 263 264 264 270 277 284 286
195 195 197 200 201 201 202 200 198 198 198 196 196 198 201 203 205 206 206 208 209 210 210 211 211 212 214 215 215 217 219 220 220 223 226 225 223 224 229 238 242 240 239 239 239 239 239 241 245 247 249 249 250 251 252 252 251 250 251 252 251 250 252 254 256 256 256 256 255 255 259 258 252 252 256 257 253 253 256 257 261 271 280 285 285
196 195 195 197 199 200 200 196 195 195 194 194 195 198 200 202 204 206 205 205 208 210 211 213 214 215 216 216 216 217 220 222 223 225 227 225 223 227 235 241 241 238 239 239 239 239 241 243 245 248 249 250 251 252 252 251 252 251 251 252 252 251 253 256 258 258 255 253 254 254 255 254 253 256 259 254 247 244 244 252 262 271 276 280 284
195 195 196 197 198 198 197 194 192 193 194 196 198 200 202 204 205 207 207 207 210 212 213 214 216 217 218 218 219 221 224 226 227 227 226 224 224 229 235 237 237 236 237 239 239 241 244 246 247 248 250 252 253 253 252 251 252 252 252 252 251 252 254 257 258 259 257 255 255 253 252 252 251 253 253 247 239 233 237 256 270 271 270 273 279
194 196 197 197 197 197 195 194 193 194 196 198 200 201 202 204 206 207 208 209 210 211 212 213 214 217 219 222 225 227 229 230 229 227 225 223 225 229 232 234 235 236 238 240 242 245 247 250 251 251 252 254 254 254 253 251 252 253 252 250 249 252 258 258 257 258 258 256 254 252 249 248 245 244 245 243 238 237 247 262 268 261 264 268 270
196 197 196 196 196 196 196 196 196 197 198 199 200 201 202 203 203 205 206 207 208 210 211 213 215 219 223 226 229 230 230 230 230 229 228 229 231 233 233 234 236 238 239 242 245 247 250 252 253 254 255 256 257 256 254 253 253 254 252 249 249 254 260 261 258 260 260 257 254 251 248 246 240 239 241 242 243 247 255 263 265 258 257 260 259
195 195 196 197 196 196 197 198 200 201 202 202 201 202 203 203 203 204 204 204 206 208 211 214 217 223 227 229 229 231 231 232 233 234 235 237 238 236 234 236 239 241 243 245 247 249 251 253 256 258 259 259 259 258 256 254 254 254 252 253 255 257 259 260 260 261 260 257 254 250 245 242 240 241 242 244 247 252 256 262 266 263 255 253 254
195 195 196 196 196 196 197 199 201 202 202 202 200 200 202 203 204 204 204 203 204 207 211 214 217 221 225 227 229 231 232 234 236 239 240 239 239 238 238 242 245 245 246 248 249 252 254 256 259 261 262 262 262 261 259 258 256 253 253 256 259 260 259 259 261 261 257 253 251 246 240 239 241 243 244 246 249 253 256 261 267 267 259 254 251
193 193 193 193 193 195 197 198 200 200 200 200 199 198 199 200 201 202 202 202 203 206 210 212 214 217 221 224 228 231 233 236 238 240 241 240 240 242 243 246 248 248 248 250 252 255 258 259 261 263 264 264 264 263 262 259 256 255 255 255 255 256 257 257 256 253 250 245 240 235 233 237 242 244 246 249 252 253 254 260 268 269 265 261 253
187 187 188 189 191 194 196 197 198 199 200 199 198 197 197 197 198 200 202 202 202 203 206 208 210 213 217 222 227 231 233 236 238 240 242 242 243 244 245 246 248 248 250 253 255 257 259 260 262 265 266 266 266 266 264 261 257 255 255 252 249 248 248 247 246 243 238 231 227 230 236 243 247 248 250 254 255 252 252 258 267 271 269 266 260
181 183 185 187 189 191 192 194 196 198 199 198 196 195 194 194 195 198 200 201 202 202 204 206 208 211 216 220 226 231 233 236 239 241 243 243 244 244 245 246 246 246 248 253 257 259 261 263 266 269 269 269 268 266 264 261 257 254 252 250 249 247 244 243 242 239 235 232 233 238 244 249 251 251 252 254 253 249 248 255 266 273 272 269 265
179 181 183 185 187 188 187 189 192 195 196 197 197 198 197 196 195 196 196 199 201 202 203 206 208 211 216 220 225 231 235 238 240 241 242 242 243 243 243 244 245 244 246 249 254 259 263 267 269 270 270 268 266 263 261 259 256 253 250 248 248 247 245 242 239 238 239 240 242 244 248 251 251 249 249 250 247 244 246 255 266 273 273 270 268
177 179 180 181 183 185 185 185 186 190 192 194 196 199 200 199 197 196 196 197 200 202 204 206 207 210 216 221 226 231 236 239 241 241 240 241 244 245 245 245 245 245 246 249 252 256 260 263 265 264 264 264 263 262 260 257 255 252 248 245 244 245 246 245 244 244 245 246 248 249 250 251 250 247 247 248 246 244 247 256 266 270 270 268 267
176 177 178 179 180 183 184 185 185 187 189 192 194 196 198 199 200 201 201 200 200 201 203 207 210 213 218 222 225 228 234 239 242 243 243 244 245 246 245 245 245 245 247 251 255 258 261 262 262 261 259 257 256 255 251 248 247 247 245 243 244 246 248 249 249 250 251 251 252 252 250 248 246 246 247 247 245 245 250 259 266 267 267 266 263
175 175 176 178 180 181 184 186 187 187 188 190 194 197 199 200 203 205 208 208 207 208 210 213 217 220 223 225 226 227 233 241 245 247 246 243 241 242 243 245 246 248 250 255 260 263 264 264 262 258 252 249 248 245 242 241 243 245 245 246 247 248 247 246 247 250 253 253 253 250 247 245 245 246 247 246 245 248 255 263 267 266 263 260 258
172 173 175 177 178 179 182 185 187 188 188 188 191 195 198 202 205 207 210 211 213 216 219 222 226 226 228 232 232 232 238 246 247 242 239 237 238 240 242 243 246 248 248 249 255 259 260 258 255 248 242 242 243 242 242 241 240 242 245 247 247 245 242 241 245 250 252 252 253 251 249 247 246 246 246 245 246 251 259 264 265 264 260 256 254
169 171 174 177 179 180 182 183 185 187 188 188 187 188 190 197 204 209 211 211 213 217 220 225 229 229 229 234 236 236 241 247 248 247 247 247 245 243 242 241 241 241 240 239 245 249 248 245 245 241 238 242 244 243 245 245 242 243 246 247 246 243 240 243 249 252 251 249 252 253 251 249 248 247 247 247 249 255 261 263 261 259 257 252 249
171 172 175 178 179 181 182 182 183 184 186 187 187 186 184 185 192 204 211 211 212 215 219 225 231 234 235 237 239 239 241 244 248 251 251 248 244 239 237 236 236 235 234 234 240 244 243 241 244 244 244 248 249 248 248 249 248 246 243 244 244 243 244 249 253 252 249 248 250 252 251 251 250 248 248 250 252 256 259 259 258 256 253 247 245
175 174 175 176 177 179 181 181 182 183 185 186 187 188 188 186 185 189 198 207 213 217 219 223 228 232 235 237 239 240 240 239 240 240 237 233 230 228 229 232 233 231 228 228 235 241 241 240 241 242 244 248 250 251 251 250 251 247 239 240 244 248 252 255 255 250 248 249 251 251 252 253 252 251 251 253 255 256 256 256 256 252 244 243 247
178 176 177 177 176 178 181 182 183 185 186 188 189 191 193 195 191 186 184 188 198 206 211 216 219 218 219 223 229 231 231 232 232 227 223 223 223 224 228 234 235 232 228 229 234 239 241 241 241 238 238 239 242 247 249 246 241 239 239 243 247 250 253 254 251 249 250 251 250 251 254 254 253 253 253 254 255 255 253 252 253 249 241 241 249
178 177 177 178 179 180 182 185 186 186 187 189 191 193 195 197 197 194 191 190 190 189 192 201 209 211 210 209 213 216 216 219 223 223 221 223 222 221 225 230 231 229 227 229 234 238 241 242 241 241 245 246 244 245 246 244 241 240 243 246 246 245 248 251 250 251 254 253 251 251 253 254 254 254 254 254 253 253 251 251 252 251 248 246 249
179 177 177 179 182 182 183 185 186 187 188 189 191 195 197 198 198 198 198 199 196 191 191 198 207 216 219 218 217 218 217 215 216 217 219 223 222 220 224 228 228 224 222 225 232 238 242 244 245 246 251 254 252 248 246 247 250 251 250 249 246 243 247 253 254 253 253 252 252 252 252 253 256 256 254 253 253 252 251 251 252 253 253 253 254
180 179 179 181 183 184 184 184 185 187 189 190 192 194 195 196 196 195 194 195 195 193 194 199 203 210 218 222 223 224 225 224 222 219 217 218 219 222 226 230 232 230 227 228 232 237 242 247 249 247 247 251 255 254 249 249 253 255 254 254 252 248 251 256 258 256 254 253 254 256 255 254 255 255 253 251 251 252 252 251 252 253 254 255 256
179 181 181 181 181 182 181 181 182 185 187 188 190 190 189 188 190 190 189 191 192 193 196 200 202 206 213 218 220 222 225 228 228 225 222 218 216 219 223 227 232 236 238 238 237 238 241 244 243 238 235 240 249 253 252 253 255 255 254 254 254 251 251 254 256 256 255 253 254 256 255 252 250 251 251 250 249 250 251 251 252 250 246 249 250
175 178 179 178 179 180 180 179 179 180 182 183 184 185 185 185 185 186 189 191 193 196 198 200 202 206 211 215 217 215 216 219 222 222 221 219 218 221 226 231 236 243 247 247 243 240 239 239 238 236 236 237 242 246 248 249 250 250 251 252 252 251 251 251 251 251 252 252 252 252 252 251 250 251 252 251 250 251 251 252 253 250 240 237 243
172 172 174 176 177 177 179 180 179 179 180 181 181 182 185 187 188 190 193 194 196 199 201 202 205 207 211 215 217 214 212 214 218 220 221 222 226 229 231 234 238 243 249 251 250 246 244 242 242 242 242 241 242 244 246 246 247 249 251 252 252 252 252 250 249 248 250 253 254 253 253 255 254 253 252 252 252 253 254 255 256 254 247 240 241
172 170 171 174 176 176 177 178 180 181 181 182 184 185 187 189 192 194 195 197 199 200 200 202 206 209 211 215 218 217 215 217 219 222 225 227 230 233 233 233 235 238 242 246 249 248 245 244 244 244 245 245 245 246 247 248 249 251 252 253 253 252 252 250 250 251 253 254 255 255 254 255 254 251 251 253 254 255 256 257 256 253 248 244 244
174 173 172 173 176 178 178 179 180 181 182 183 186 188 190 192 194 196 197 199 200 199 198 201 204 206 207 209 210 213 219 223 223 225 228 229 231 234 235 235 236 238 238 241 243 245 245 246 247 248 249 250 250 251 252 253 254 254 254 254 253 252 252 252 253 254 255 254 254 254 254 254 253 252 252 254 255 253 254 257 257 252 244 243 247
177 176 175 175 177 180 182 182 181 182 184 186 188 190 193 195 196 197 197 197 197 197 198 200 201 199 197 198 199 205 215 225 229 229 230 231 232 234 237 239 240 240 241 241 242 244 246 250 253 256 258 259 259 259 259 259 259 258 256 255 254 253 253 254 254 255 256 256 256 257 256 255 254 255 256 256 255 252 252 255 255 251 246 246 250
177 176 176 177 178 180 183 184 185 186 187 189 190 192 194 195 195 195 195 194 195 197 198 199 199 198 197 200 204 208 213 222 227 229 232 235 235 237 240 242 244 245 246 247 247 248 250 252 255 258 260 261 262 262 261 260 259 258 256 255 256 257 258 258 259 259 260 260 259 259 258 256 255 255 256 257 256 253 251 251 251 250 249 249 249
179 180 179 179 179 181 182 184 186 188 187 188 189 190 191 192 192 191 191 192 192 193 194 195 196 197 199 203 208 211 214 218 221 224 230 235 239 242 245 247 249 252 253 253 253 254 254 256 257 257 259 260 260 260 260 259 258 258 257 257 258 260 262 262 261 259 258 257 256 256 257 257 258 258 257 256 256 254 251 251 251 251 250 249 248
183 183 183 183 182 182 183 184 185 187 188 188 188 187 186 186 188 188 189 190 191 190 191 192 193 196 199 202 206 209 213 217 220 224 229 234 239 245 249 251 253 256 258 258 259 259 258 258 258 258 257 258 259 259 259 258 257 256 256 257 258 259 259 259 258 256 254 253 253 254 256 259 261 261 260 257 254 253 252 251 250 249 250 251 252
185 184 185 185 184 182 183 183 183 185 186 187 187 185 183 182 183 184 186 187 188 189 190 190 192 195 199 202 206 210 214 218 222 227 232 237 241 246 250 252 254 256 257 258 259 259 259 259 259 257 257 258 258 258 258 258 257 256 256 256 257 258 258 257 256 256 256 256 256 256 258 260 262 263 262 258 254 252 253 254 253 253 254 254 253
185 184 184 184 183 182 181 180 181 183 183 183 182 181 181 180 180 182 184 186 187 188 190 191 193 197 201 204 210 215 218 223 228 232 235 239 242 244 247 251 254 256 259 260 261 261 260 260 260 259 258 259 259 259 259 259 258 258 258 258 259 259 259 259 259 259 260 260 260 259 259 260 261 261 261 259 256 253 254 256 256 255 255 255 255
185 184 183 182 182 182 181 180 181 182 182 179 178 177 178 179 181 182 184 186 187 188 192 195 198 201 205 209 214 219 222 227 232 235 237 241 243 244 247 250 252 256 259 262 264 265 265 265 264 263 262 261 260 260 260 260 260 260 260 261 262 262 261 262 263 263 263 263 263 263 262 263 263 262 261 260 259 256 254 254 255 254 252 253 255
179 180 179 178 178 178 178 178 179 179 178 177 177 176 177 179 183 185 187 189 191 194 198 201 204 208 212 215 220 225 229 232 235 237 239 242 243 245 247 249 251 253 256 258 261 264 266 267 267 267 266 265 265 265 264 264 264 264 264 264 264 264 263 264 264 264 263 263 262 262 261 262 262 262 262 261 260 259 256 254 253 252 250 250 253
167 169 171 171 171 171 172 172 174 175 175 175 177 178 180 183 187 190 193 196 199 202 205 208 211 215 219 223 228 232 234 236 238 240 242 243 244 247 249 250 251 254 256 257 259 261 263 265 267 267 267 267 268 268 269 269 268 267 267 265 264 263 263 263 263 262 262 261 260 259 259 259 260 260 261 260 259 259 258 257 255 254 252 252 254